Regional Weather Roundup
Issued by NWS

Home | Current Version | Previous Version | Text Only | Print | Product List | Glossary Off
Versions: 1 2 3 4 5 6 7 8 9 10 11 12 13 14 15 16 17 18 19 20 21 22 23 24 25 26 27 28 29 30 31 32 33 34 35 36 37 38 39 40 41 42 43 44 45 46 47 48 49 50

000
ASUS43 KLMK 291910
RWRKY
KENTUCKY REGIONAL WEATHER ROUNDUP
NATIONAL WEATHER SERVICE LOUISVILLE KY
300 PM EDT MON JUN 29 2015

NOTE "FAIR" INDICATES FEW OR NO CLOUDS BELOW 12,000 FEET
WITH NO SIGNIFICANT WEATHER AND/OR OBSTRUCTIONS TO VISIBILITY.

KYZ001>023-026-027-061>063-070>075-292000-
WESTERN AND SOUTH CENTRAL KENTUCKY

CITY           SKY/WX    TMP DP  RH WIND       PRES   REMARKS
PADUCAH        MOSUNNY   86  68  54 W7        29.85S
HENDERSON      PTSUNNY   82  66  57 W12G20    29.82S
OWENSBORO      MOSUNNY   84  70  63 NW12      29.83S
HOPKINSVILLE   MOSUNNY   85  69  59 SW17      29.86F
BOWLING GREEN  MOSUNNY   85  67  54 SW14      29.85F
GLASGOW        PTSUNNY   81  68  64 SW12      29.85F
$$

KYZ024-025-028>034-038-045-046-053-292000-
NORTH CENTRAL KENTUCKY

CITY           SKY/WX    TMP DP  RH WIND       PRES   REMARKS
LOUISVILLE/SDF PTSUNNY   82  70  66 VRB3      29.80R
LOUISVILLE/LOU PTSUNNY   75  68  78 SE5       29.81F
FORT KNOX      PTSUNNY   82  68  62 SW15G22   29.80F
$$

KYZ035>037-039>044-047>052-055>060-089>105-292000-
NORTHEAST KENTUCKY

CITY           SKY/WX    TMP DP  RH WIND       PRES   REMARKS
LEXINGTON      LGT RAIN  80  67  64 S15G24    29.83F
COVINGTON      MOSUNNY   77  68  73 W7        29.81F
FRANKFORT      PTSUNNY   79  66  64 SW14      29.81F
$$

KYZ054-064>069-076>088-106>120-292000-
SOUTHEAST KENTUCKY

CITY           SKY/WX    TMP DP  RH WIND       PRES   REMARKS
JACKSON        MOSUNNY   79  63  57 S8        29.90F
LONDON         MOSUNNY   82  62  50 S12       29.90F
SOMERSET       PTSUNNY   79  64  61 SW15G24   29.90F
MIDDLESBORO    MOSUNNY   79  63  56 S7        29.95F
MONTICELLO     PTCLDY    81  68  64 SW12G22   29.92F
$$



USA.gov is the U.S. government's official web portal to all federal, state and local government web resources and services.